Vorticity
7 7 7 9 9 11 11 10 16 16 -4 2 11 3 10 9 11 11 17 15 3 6 11 16 16 6 2 4 13 11 16 13 6 -1 6 6 0 6 18 18 -21 5 24 -3
7 7 8 9 9 11 9 11 11 20 3 9 7 9 9 10 14 8 15 22 3 0 12 25 7 3 7 -5 5 11 10 -13 32 11 6 -26 3 10 23 35 27 7 14 12
7 7 9 9 10 11 11 16 16 17 -3 7 7 12 3 10 16 11 14 14 16 2 25 5 -3 5 5 23 0 15 23 6 8 12 10 2 -4 12 16 39 9 3 39 0
7 8 9 10 10 11 10 6 3 11 5 5 5 11 10 10 17 10 12 7 13 17 12 18 -3 6 14 13 -2 13 21 9 8 9 2 1 -3 6 11 8 45 28 14 0
7 8 10 11 9 11 12 9 17 15 14 5 7 6 5 11 11 8 10 13 15 18 11 2 10 15 19 9 6 15 6 2 8 12 13 7 5 2 14 19 5 6 10 8
8 8 10 11 9 12 10 2 12 13 14 5 12 6 4 11 10 10 9 12 15 16 13 19 13 9 15 12 7 13 17 13 6 25 -5 20 29 -2 3 8 16 5 15 9
8 10 10 10 8 14 10 4 12 12 12 4 9 9 7 12 11 13 5 12 13 10 15 17 13 13 16 4 10 4 19 22 16 6 22 13 1 4 17 7 2 16 12 12
10 10 11 9 8 14 11 5 11 9 16 -1 9 7 10 9 14 11 10 8 6 17 14 25 10 7 17 3 4 -5 28 14 23 4 8 9 10 -4 17 9 -4 4 13 12
10 11 11 8 9 14 13 6 7 10 22 -5 11 5 13 6 15 17 15 3 5 14 13 12 5 7 6 7 22 1 13 12 10 11 15 8 -10 10 14 15 23 -8 10 10
12 11 10 7 11 14 12 8 4 6 23 -0 11 4 11 9 9 23 3 10 12 5 21 12 10 5 13 9 5 -7 22 13 0 13 20 15 -3 10 13 6 -6 6 9 9
10 10 7 8 14 14 12 8 4 3 18 10 3 5 4 12 4 12 10 21 7 6 16 19 11 3 3 19 -1 -8 20 17 12 19 11 19 -16 17 10 -8 4 7 9 9
12 11 7 8 16 14 10 13 4 4 12 24 0 8 -5 10 5 8 17 12 14 7 9 11 8 9 6 6 8 17 17 2 8 14 -22 3 6 18 10 14 12 9 8 9
14 14 10 7 17 15 9 13 8 4 5 21 14 9 -9 3 9 6 13 21 15 15 6 7 6 12 4 6 7 8 2 25 5 21 -9 9 14 16 18 9 13 13 12 10
15 16 12 7 18 15 7 13 15 1 9 -10 11 12 -0 -2 13 2 10 14 24 15 12 5 5 9 18 -3 -3 2 4 6 7 21 21 3 20 4 11 13 13 12 12 11
11 19 18 10 20 13 8 10 14 8 5 5 18 14 -5 -4 18 1 11 13 22 13 14 7 6 8 15 13 15 7 17 -5 -1 9 19 21 13 10 9 9 9 10 11 12
5 14 22 13 23 8 10 14 10 10 6 10 24 14 -3 -3 13 4 10 12 21 16 15 11 14 11 9 16 -13 20 18 12 3 -4 11 17 21 12 9 8 9 13 14 10
4 8 22 19 20 3 13 7 15 13 -4 27 17 2 -4 20 -10 10 10 15 18 20 18 21 15 15 14 4 14 14 11 16 6 2 -4 24 10 18 12 8 7 8 11 16
4 7 20 26 12 8 14 15 7 7 18 18 10 -4 -2 13 -2 5 8 21 21 18 13 4 8 9 15 -6 8 13 21 16 8 2 -4 21 19 10 15 12 8 6 4 4
4 8 21 31 4 10 14 9 10 3 21 14 7 -8 29 -12 6 8 26 21 22 15 11 12 12 2 1 -5 17 13 22 15 6 7 9 19 21 18 7 11 13 8 4 3
4 7 21 22 9 15 11 13 -1 31 14 10 -7 -7 18 21 9 11 43 26 13 11 14 14 14 18 1 -4 13 18 25 16 15 8 14 17 23 25 19 7 7 11 10 6
3 12 20 21 15 23 20 6 27 20 14 -4 -15 2 7 1 20 23 49 10 12 14 8 12 12 -9 -11 -7 16 13 22 18 12 9 7 16 21 21 23 20 10 6 8 9
2 26 28 17 21 10 4 -3 1 23 -1 -17 -9 7 16 7 28 45 23 19 14 7 4 22 9 -4 -13 5 13 10 23 13 12 5 5 16 21 20 20 21 20 13 9 7
2 33 22 26 -5 11 5 -4 -10 4 2 -1 5 17 26 18 27 24 18 13 8 0 20 8 -22 -7 4 16 10 12 20 16 9 4 6 16 20 18 18 19 18 19 16 12
11 35 16 -2 4 -13 -3 13 13 7 14 -3 -8 23 19 24 56 8 12 8 15 14 5 -16 -13 4 14 19 5 11 20 19 10 7 11 16 18 17 16 16 16 17 17 16
18 37 12 -20 -1 8 9 14 15 6 13 -2 9 30 49 33 15 13 7 19 10 -6 -20 -5 -1 5 25 14 4 6 21 21 16 12 14 16 17 15 15 15 14 14 15 16
36 8 -8 7 10 14 4 16 15 14 1 12 8 50 19 15 11 12 6 2 -19 -7 3 1 -3 17 22 11 5 4 5 27 18 15 14 16 16 15 13 13 14 14 14 14
-2 -13 9 5 10 23 2 16 5 17 7 14 23 37 9 7 26 -1 -4 -6 -5 11 14 4 10 23 17 9 6 6 3 22 20 16 13 16 15 14 13 13 12 11 11 11
Height
3126 3122 3119 3113 3108 3102 3097 3092 3086 3082 3078 3075 3067 3064 3061 3056 3051 3045 3041 3037 3034 3030 3026 3022 3019 3017 3013 3009 3005 3001 2998 2995 2990 2987 2984 2981 2981 2979 2976 2974 2967 2964 2963 2977
3124 3120 3117 3112 3106 3101 3096 3090 3086 3082 3078 3073 3068 3064 3060 3056 3050 3045 3039 3036 3033 3030 3026 3022 3018 3016 3013 3009 3006 3002 2999 2995 2989 2984 2985 2985 2982 2980 2975 2972 2972 2968 2964 2975
3122 3118 3115 3110 3105 3099 3095 3089 3085 3081 3077 3073 3069 3064 3060 3055 3049 3044 3039 3035 3031 3028 3024 3022 3018 3015 3012 3008 3005 3002 3000 2998 2996 2993 2991 2990 2986 2981 2975 2971 2971 2970 2970 2972
3119 3116 3113 3108 3102 3098 3094 3088 3086 3081 3077 3072 3069 3065 3060 3055 3049 3045 3039 3035 3031 3026 3022 3019 3018 3014 3009 3008 3005 3003 2999 2997 2996 2993 2991 2990 2987 2983 2979 2975 2974 2973 2974 2972
3117 3114 3111 3107 3101 3096 3092 3088 3085 3080 3076 3072 3068 3064 3060 3055 3049 3045 3039 3034 3030 3025 3023 3020 3014 3012 3010 3009 3005 3003 3000 2997 2994 2991 2990 2989 2988 2985 2982 2979 2977 2976 2976 2975
3114 3112 3109 3104 3099 3095 3090 3087 3083 3079 3075 3072 3068 3065 3060 3055 3049 3044 3039 3034 3030 3026 3023 3018 3015 3012 3010 3008 3005 3002 3000 2997 2994 2989 2988 2988 2987 2985 2984 2982 2979 2977 2976 2976
3112 3109 3107 3101 3097 3094 3089 3086 3082 3078 3075 3071 3068 3064 3059 3054 3049 3045 3041 3036 3030 3027 3021 3017 3014 3011 3009 3008 3005 3002 2999 2997 2995 2991 2987 2983 2987 2985 2983 2983 2980 2978 2976 2975
3110 3107 3104 3099 3095 3092 3088 3084 3081 3077 3073 3071 3067 3063 3058 3054 3049 3044 3040 3036 3032 3026 3022 3017 3014 3012 3011 3008 3006 3003 3000 2997 2995 2993 2987 2988 2987 2985 2984 2982 2982 2979 2977 2975
3107 3105 3101 3096 3093 3090 3086 3082 3080 3076 3073 3070 3067 3062 3058 3054 3048 3043 3039 3035 3031 3026 3022 3021 3020 3016 3012 3010 3007 3003 3001 2997 2998 2994 2990 2983 2986 2985 2983 2982 2982 2979 2978 2976
3105 3102 3099 3094 3091 3087 3084 3081 3078 3075 3071 3069 3066 3062 3058 3053 3048 3043 3039 3035 3031 3027 3024 3022 3020 3017 3014 3011 3008 3003 3000 2997 2996 2993 2989 2986 2985 2984 2982 2983 2986 2978 2977 2975
3102 3100 3096 3092 3089 3085 3082 3079 3076 3074 3069 3067 3064 3061 3057 3052 3048 3043 3039 3035 3030 3027 3024 3023 3020 3018 3015 3011 3007 3005 3002 2998 2995 2992 2989 2986 2983 2983 2983 2981 2978 2976 2975 2973
3101 3098 3094 3090 3087 3083 3080 3077 3075 3072 3069 3066 3063 3059 3056 3051 3046 3042 3037 3034 3030 3027 3025 3022 3018 3017 3012 3010 3008 3004 3001 3000 2997 2995 2989 2985 2982 2980 2978 2976 2975 2973 2972 2970
3099 3095 3091 3087 3084 3081 3078 3074 3073 3071 3067 3064 3061 3057 3054 3049 3045 3041 3038 3032 3028 3026 3023 3021 3017 3015 3011 3010 3007 3002 2998 2995 2992 2989 2984 2981 2979 2976 2974 2972 2971 2969 2969 2967
3098 3093 3088 3085 3082 3079 3076 3073 3070 3069 3065 3062 3060 3056 3053 3049 3044 3039 3034 3030 3025 3023 3020 3017 3015 3012 3009 3006 3004 3000 2997 2992 2988 2983 2980 2977 2975 2973 2971 2969 2968 2966 2966 2965
3097 3091 3086 3083 3080 3077 3073 3070 3068 3066 3067 3061 3057 3054 3051 3047 3042 3036 3031 3026 3022 3019 3016 3014 3012 3009 3008 3003 2999 2994 2991 2988 2985 2981 2977 2974 2972 2970 2968 2966 2965 2964 2963 2962
3096 3090 3085 3080 3078 3075 3071 3069 3067 3064 3062 3058 3054 3051 3049 3044 3039 3034 3027 3022 3018 3015 3012 3010 3007 3007 3005 2999 2993 2989 2985 2982 2979 2976 2973 2970 2967 2966 2965 2963 2962 2960 2959 2958
3095 3090 3084 3078 3076 3073 3070 3069 3066 3062 3059 3055 3051 3049 3046 3041 3036 3031 3024 3018 3014 3011 3008 3004 3003 3001 3002 2994 2988 2985 2981 2978 2975 2971 2968 2966 2963 2961 2960 2959 2958 2957 2955 2954
3093 3089 3083 3076 3074 3071 3068 3065 3063 3060 3058 3053 3050 3048 3043 3037 3031 3025 3019 3013 3009 3005 3003 3001 2999 2997 2995 2989 2985 2980 2976 2973 2970 2967 2963 2960 2957 2956 2954 2953 2953 2953 2952 2951
3092 3087 3081 3076 3072 3069 3066 3063 3061 3059 3059 3053 3050 3047 3040 3033 3028 3021 3014 3008 3004 3001 2998 2997 2996 2991 2988 2984 2979 2974 2970 2967 2964 2961 2958 2953 2950 2949 2948 2947 2947 2947 2947 2946
3091 3086 3079 3073 3071 3067 3065 3061 3060 3055 3053 3050 3048 3044 3038 3034 3025 3016 3012 3004 3002 2998 2997 2994 2989 2984 2983 2980 2974 2969 2966 2963 2959 2956 2952 2947 2943 2940 2940 2939 2939 2940 2940 2940
3089 3083 3078 3073 3069 3066 3063 3061 3060 3055 3051 3047 3044 3040 3033 3027 3021 3015 3011 3004 3000 2996 2994 2992 2984 2979 2979 2975 2970 2965 2960 2956 2954 2950 2946 2941 2936 2934 2932 2932 2932 2932 2933 2933
3087 3083 3076 3072 3069 3066 3065 3062 3059 3055 3050 3046 3040 3035 3029 3022 3015 3010 3004 3002 2999 2993 2991 2989 2981 2978 2975 2970 2965 2960 2955 2953 2949 2945 2941 2936 2931 2928 2925 2924 2924 2924 2924 2925
3085 3080 3075 3073 3072 3070 3065 3062 3059 3055 3050 3044 3036 3030 3023 3015 3012 3006 3003 2999 2996 2993 2990 2983 2979 2974 2970 2965 2960 2955 2950 2947 2943 2940 2935 2930 2926 2922 2920 2918 2917 2916 2916 2916
3082 3079 3076 3074 3071 3068 3064 3059 3055 3050 3044 3038 3031 3025 3020 3012 3009 3005 3001 2998 2995 2990 2985 2979 2975 2971 2965 2961 2956 2950 2946 2942 2938 2934 2929 2924 2920 2917 2915 2913 2911 2910 2909 2909
3081 3078 3075 3072 3070 3064 3059 3054 3049 3044 3039 3033 3026 3018 3013 3009 3006 3003 3000 2996 2990 2985 2979 2975 2971 2966 2960 2956 2951 2947 2942 2937 2932 2928 2924 2920 2916 2913 2910 2908 2907 2905 2904 2903
3077 3074 3071 3068 3063 3059 3053 3048 3043 3038 3034 3028 3021 3014 3008 3006 3004 3001 2997 2992 2986 2982 2977 2972 2967 2961 2955 2951 2947 2942 2937 2932 2927 2923 2919 2915 2912 2909 2907 2904 2902 2901 2899 2898
3071 3069 3066 3062 3057 3053 3048 3042 3038 3032 3028 3023 3018 3014 3009 3003 2998 2995 2991 2987 2983 2978 2973 2967 2961 2955 2950 2946 2942 2937 2932 2927 2922 2918 2914 2910 2907 2905 2903 2901 2899 2897 2895 2893